User: anonymous   Login
Location: Bijele Vode
(45.2833°N, 16.2000°E)
Time: 00:31:42
(UTC+00:00)
Language:

Cosmos 1125 Rocket - Orbit

View from above orbital plane
View from above orbital plane
View from above satellite
View from above satellite

Ground track
Ground track

The orbit data is extracted from the following two-line orbital elements,

1 11511U 79078B   21136.56279060  .00000017  00000-0  14432-4 0  9994
2 11511  74.0367 207.7654 0014444 103.0716 257.2051 14.36925206183624
Epoch (UTC): 16 May 2021 13:30:25
Eccentricity: 0.0014444
inclination: 74.0367°
perigee height: 758 km
apogee height: 779 km
right ascension of ascending node: 207.7654°
argument of perigee: 103.0716°
revolutions per day: 14.36925206
mean anomaly at epoch: 257.2051°
orbit number at epoch: 18362

The dashed part of the orbit path shows where the satellite is in the earth's shadow,  

DLR